Regional Weather Roundup
Issued by NWS

Home | Current Version | Previous Version | Text Only | Print | Product List | Glossary Off
Versions: 1 2 3 4 5 6 7 8 9 10 11 12 13 14 15 16 17 18 19 20 21 22 23 24 25 26 27 28 29 30 31 32 33 34 35 36 37 38 39 40 41 42 43 44 45 46 47 48 49 50

000
ASUS45 KBOI 210210
RWRID
WEATHER ROUNDUP FOR IDAHO
NATIONAL WEATHER SERVICE BOISE ID
700 PM MST SAT DEC 20 2014

NOTE: "FAIR" INDICATES FEW OR NO CLOUDS BELOW 12000 FEET
WITH NO SIGNIFICANT WEATHER AND/OR OBSTRUCTIONS TO VISIBILITY

IDZ012-014-210300-
SOUTHWEST IDAHO


CITY           SKY/WX    TMP DP  RH WIND       PRES   REMARKS
BOISE          LGT RAIN  41  39  93 SE7       29.95R
CALDWELL       CLOUDY    43  36  75 NE10      29.94F
MOUNTAIN HOME  LGT RAIN  41  39  92 E10       29.96F
$$

IDZ016-017-210300-
SOUTHCENTRAL IDAHO


CITY           SKY/WX    TMP DP  RH WIND       PRES   REMARKS
BURLEY         CLOUDY    40  36  86 SW8       29.98R WCI  34
JEROME         LGT RAIN  40  37  89 S6        29.98S
TWIN FALLS     LGT RAIN  42  36  79 S8        29.98R
$$

IDZ019>023-210300-
SOUTHEAST IDAHO


CITY           SKY/WX    TMP DP  RH WIND       PRES   REMARKS
IDAHO FALLS    CLOUDY    37  33  85 SW17      29.95F WCI  27
POCATELLO      CLOUDY    40  34  79 S16       29.98F WCI  31
REXBURG        CLOUDY    35  34  96 SW10      29.94F WCI  27
$$

IDZ006-010-011-018-031-032-210300-
CENTRAL IDAHO MOUNTAINS


CITY           SKY/WX    TMP DP  RH WIND       PRES   REMARKS
MCCALL         LGT SNOW  32  32 100 SE8       29.83S FOG     WCI  25
HAILEY         LGT SNOW  32  32 100 CALM      29.96S
STANLEY          N/A     32  28  85 SE8       29.87F WCI  25
SALMON         CLOUDY    34  27  75 CALM      29.83S
CHALLIS        CLOUDY    32  26  78 NW3       29.85F
$$

IDZ002-004-006-007-026-210300-
NORTHERN IDAHO


CITY           SKY/WX    TMP DP  RH WIND       PRES   REMARKS
LEWISTON       RAIN      42  41  96 E9        29.71F
LOWELL           N/A     40  39  97 CALM      29.81F
COEUR D`ALENE  CLOUDY    39  36  87 S9        29.66F WCI  33
MULLAN PASS    SNOW      30  27  88 VRB3      29.63F VSB 1/4
$$



USA.gov is the U.S. government's official web portal to all federal, state and local government web resources and services.